Temperature
24 23 23 23 24 26 27 28 29 28 29 29 29 29 27 26 24 22 21 22 21 21 21 21 21 20 20 20 20 20 20 20 20 20 20 19 19 19 19 19 19 19 19 19 19 19 19 19 19
24 23 23 24 25 26 26 28 28 29 29 29 29 28 27 25 24 22 22 22 21 21 21 21 21 21 20 20 20 20 20 20 20 20 20 20 20 19 19 19 19 19 19 19 19 19 19 19 19
24 24 25 25 27 27 27 28 29 29 29 29 28 27 25 25 24 22 22 21 20 20 20 21 21 21 20 20 20 20 20 20 20 20 20 20 20 19 19 19 19 19 19 19 19 19 19 19 19
24 25 26 27 28 28 28 29 29 29 29 29 28 26 24 24 23 22 22 21 21 20 20 21 20 20 20 20 20 20 20 20 20 20 20 20 20 19 19 19 19 19 19 19 19 19 18 18 18
26 26 26 26 27 29 29 29 29 29 29 28 26 25 23 23 23 22 22 22 21 20 20 20 20 20 20 20 20 20 20 20 20 19 19 19 19 19 19 19 19 19 19 19 19 19 18 18 18
27 26 24 25 27 28 29 29 28 28 27 27 26 25 23 23 22 22 22 22 21 20 20 20 20 20 20 20 19 19 19 19 19 19 19 19 19 19 19 19 19 19 19 19 19 19 18 18 18
28 26 26 26 26 27 28 28 27 26 26 25 25 25 22 22 22 22 22 22 21 21 20 20 20 20 20 20 20 19 19 19 19 19 19 19 19 19 19 19 19 19 19 19 19 18 18 18 18
28 27 26 26 26 26 27 27 26 25 24 22 23 22 21 21 21 21 21 21 21 21 20 20 20 20 20 20 19 19 19 19 19 19 19 19 19 19 19 19 19 19 19 19 19 19 18 18 18
28 26 24 24 26 25 26 26 25 23 22 21 20 19 20 20 21 21 21 21 21 20 20 20 19 19 19 19 19 19 19 19 19 19 19 19 19 19 18 19 19 19 19 19 19 19 18 18 18
29 25 25 26 27 25 23 23 24 22 20 20 19 19 19 19 20 20 20 20 20 20 20 20 20 19 19 19 19 19 19 19 19 19 19 19 19 18 18 18 18 18 19 19 19 19 18 18 18
28 27 27 27 26 25 23 21 21 21 19 18 17 18 18 19 19 19 18 18 19 19 19 20 20 20 19 19 19 19 19 19 19 18 18 18 18 18 18 18 18 18 19 19 19 18 18 18 18
27 27 27 26 25 25 23 21 19 18 17 17 17 18 18 18 18 18 18 18 18 18 18 19 19 19 19 19 19 19 19 19 18 18 18 18 18 18 18 18 18 18 18 18 18 18 19 18 18
27 26 25 24 23 22 21 20 19 18 17 17 18 18 18 17 18 17 17 17 17 18 18 18 18 19 19 19 19 19 18 18 18 18 18 18 18 18 18 18 18 18 18 18 18 18 18 19 19
27 26 25 24 24 23 21 21 19 18 18 18 18 18 18 17 17 17 17 17 17 17 17 17 18 18 18 18 19 18 18 18 18 18 18 18 18 18 18 18 18 18 18 18 18 18 19 19 19
27 26 26 25 24 23 23 20 19 19 19 19 18 18 18 18 18 17 17 17 17 17 17 17 17 17 17 18 18 18 18 18 18 18 18 18 18 18 18 18 18 18 18 18 18 19 19 19 19
28 26 24 25 25 24 24 20 19 19 19 19 19 19 18 18 18 17 17 16 16 16 16 16 16 16 17 17 17 17 18 18 18 18 18 18 18 18 18 18 18 18 18 18 18 19 19 19 19
27 25 23 23 25 25 23 20 20 19 20 20 19 19 19 18 18 17 16 16 16 15 15 15 16 16 16 16 16 17 17 17 18 18 18 18 18 18 18 18 18 18 18 18 18 18 19 19 19
26 26 26 24 24 24 22 20 20 20 20 19 19 19 19 18 17 17 16 16 15 15 15 15 15 15 15 15 16 16 16 17 17 17 18 18 18 18 18 18 18 18 18 18 18 18 18 19 19
27 27 26 25 24 24 22 21 20 20 19 19 19 19 18 17 17 16 16 15 15 14 14 14 14 14 15 15 15 15 16 16 16 17 17 17 17 18 18 17 18 18 18 18 18 18 18 18 18
27 26 26 25 24 24 22 21 21 20 19 19 18 18 17 17 16 16 15 15 14 14 14 14 14 14 14 14 14 14 15 15 16 16 16 17 17 17 17 17 17 17 17 18 18 17 18 18 18
26 25 24 24 24 23 23 21 20 20 20 19 18 18 17 16 15 15 14 14 14 13 13 13 13 13 13 14 14 14 14 14 15 15 16 16 16 17 17 17 17 17 17 17 17 17 17 17 17
24 24 24 23 23 23 23 21 20 20 19 19 18 17 16 16 15 14 14 14 13 13 13 12 13 13 13 13 13 14 14 14 14 15 15 16 16 16 16 16 16 17 17 17 17 17 17 17 17
24 24 23 23 23 23 23 22 19 20 19 18 18 17 16 15 15 14 14 13 13 13 12 12 12 13 13 13 13 13 13 14 14 14 15 15 15 16 16 16 16 16 17 17 17 17 17 17 17
23 24 24 24 23 22 23 22 19 19 18 18 18 17 16 15 15 14 14 13 13 12 12 12 12 12 12 13 13 13 13 13 14 14 14 15 15 15 16 16 16 16 16 16 17 17 17 17 17
24 23 23 22 21 22 23 22 19 19 19 18 17 17 16 15 15 14 14 13 13 12 12 12 12 12 12 13 13 13 13 13 13 13 14 14 15 15 15 15 16 16 16 16 16 16 16 16 16
24 23 22 21 22 22 22 21 19 19 19 18 17 17 16 16 15 14 14 13 13 13 12 12 12 12 12 12 12 12 13 13 13 13 14 14 14 14 15 15 15 15 16 16 16 16 16 16 16
23 23 23 22 23 23 22 20 19 19 19 18 18 17 16 16 15 15 14 14 13 13 13 12 12 12 12 12 12 12 12 12 13 13 13 13 14 14 14 14 15 15 15 15 16 16 16 16 16
23 22 23 22 21 21 22 21 19 19 18 18 18 17 16 16 15 15 14 14 13 13 13 13 12 12 12 12 12 12 12 12 13 13 13 13 13 14 14 14 14 14 15 15 15 15 15 15 15
23 23 23 22 22 20 19 19 20 18 18 18 18 17 16 16 15 15 14 14 14 13 13 13 12 12 12 12 12 12 12 12 12 12 12 13 13 13 13 14 14 14 14 14 15 15 15 15 15
22 21 21 20 21 22 20 19 20 19 18 18 18 17 17 16 16 15 15 14 14 13 13 13 12 12 12 12 11 11 12 12 12 12 12 12 12 13 13 13 13 14 14 14 14 14 14 15 15
Wind_Speed
9 10 7 4 3 2 11 11 12 11 11 11 10 9 15 15 9 7 5 12 19 17 17 15 14 13 12 11 10 9 9 8 8 8 7 6 5 5 5 5 4 4 4 4 4 5 5 5 5
9 7 5 3 1 7 10 9 11 12 11 10 11 14 17 15 13 9 7 14 18 17 16 15 14 12 11 10 10 9 9 8 8 7 7 6 5 5 4 4 4 4 4 4 4 5 5 4 4
10 7 4 2 6 9 10 9 9 13 13 12 14 15 12 9 12 9 11 14 16 15 16 16 14 12 11 10 9 9 8 8 7 7 6 5 5 4 3 3 3 3 3 4 4 4 4 3 3
6 4 3 2 11 10 9 9 10 14 15 15 13 11 11 12 10 12 12 14 15 14 16 16 13 11 10 9 9 8 7 7 7 6 6 5 5 4 3 3 3 3 3 3 3 3 3 3 2
5 2 2 5 10 10 10 11 12 13 15 16 18 16 15 14 14 13 11 13 13 14 16 15 13 11 10 9 8 8 7 7 7 6 6 5 5 4 3 3 3 2 2 2 2 2 3 3 2
3 1 2 4 9 9 11 12 14 15 15 15 15 16 12 12 11 9 8 8 11 13 15 15 14 12 10 9 9 8 8 8 8 7 7 6 5 5 4 3 3 3 2 2 2 2 3 3 3
5 2 3 5 7 9 11 13 14 14 15 15 11 12 9 10 7 7 6 5 7 9 12 14 15 13 12 11 11 10 9 9 9 8 8 7 6 6 6 5 4 4 3 3 3 3 3 3 4
4 3 3 3 6 8 9 13 14 15 13 14 13 10 7 6 6 7 7 6 5 5 6 8 12 14 14 14 14 13 12 11 10 10 9 9 8 8 8 8 7 6 5 4 4 4 4 5 5
4 2 2 2 4 7 10 13 13 14 15 16 15 13 9 9 9 9 8 7 7 6 5 3 3 6 9 14 15 15 14 13 12 11 12 11 11 12 12 12 11 9 7 6 6 6 6 7 8
1 3 3 6 9 10 13 13 7 9 14 13 14 13 12 11 12 11 9 9 9 9 8 8 6 2 1 4 10 12 12 12 13 12 13 13 14 13 12 13 14 12 10 9 9 9 9 9 10
5 5 7 9 10 10 10 12 15 9 11 9 10 12 11 12 11 10 10 9 8 9 9 9 8 7 5 2 3 5 6 9 12 13 14 14 13 10 9 10 12 12 12 11 11 11 11 12 12
6 9 9 9 10 10 10 8 11 14 8 7 8 9 10 11 11 10 10 9 7 8 8 9 9 8 8 6 2 1 2 4 6 10 13 12 6 5 6 7 11 12 12 11 11 10 14 15 14
9 8 12 14 16 16 16 15 11 10 7 6 7 8 9 9 9 8 8 7 7 6 6 6 7 7 6 6 4 2 1 2 5 6 8 9 5 5 4 5 8 10 12 10 7 8 9 8 7
9 11 11 11 12 11 14 11 7 7 5 6 6 7 8 8 8 8 8 8 7 7 6 5 5 5 4 4 5 4 3 2 2 3 7 7 6 4 3 4 4 5 7 9 8 7 5 4 3
10 9 9 8 9 10 9 10 7 4 4 5 5 5 5 6 6 7 8 8 7 7 7 5 5 4 4 4 4 4 5 5 3 3 6 6 5 5 4 4 3 4 6 6 6 7 4 4 4
9 9 5 3 3 5 2 6 6 3 3 4 4 4 4 4 7 8 8 8 8 8 8 7 7 6 5 4 4 3 4 5 4 5 5 6 6 5 4 4 3 4 5 3 3 3 2 3 3
7 5 3 4 2 2 5 6 5 3 4 5 6 6 6 7 9 9 9 9 9 8 8 8 7 6 6 5 4 4 4 4 4 5 5 6 7 7 4 3 3 4 2 2 4 3 3 3 3
6 7 5 4 5 5 6 6 5 3 5 7 7 8 8 10 11 11 11 10 9 9 10 9 8 7 6 5 4 4 4 4 4 4 5 7 7 7 5 3 4 4 2 3 2 3 3 2 2
10 10 9 5 5 3 3 4 5 4 5 7 9 10 10 11 12 11 11 10 10 10 11 10 9 8 6 4 4 4 4 4 4 4 6 8 9 8 5 5 5 5 4 4 4 3 3 3 2
9 9 8 4 4 2 2 4 6 5 5 6 8 10 11 12 13 12 12 11 11 10 10 11 10 9 8 6 5 4 5 5 5 4 5 8 9 8 7 7 6 6 5 6 5 4 3 3 3
10 6 8 6 2 4 5 5 7 6 5 6 7 9 11 12 13 13 12 11 11 11 11 12 10 10 9 8 5 5 5 5 5 5 5 6 7 8 7 7 7 7 7 7 7 6 6 5 4
8 7 6 7 6 5 5 3 8 5 4 7 8 9 10 10 11 11 11 12 12 12 11 12 11 11 10 9 7 7 6 6 6 5 5 5 6 6 7 7 7 8 7 8 8 8 6 6 6
7 7 7 8 8 9 6 3 7 4 6 8 9 9 10 10 10 10 11 11 11 11 10 10 11 11 10 9 8 7 6 6 6 6 6 6 5 5 6 6 7 8 7 8 8 8 8 7 7
6 8 9 8 8 7 3 2 5 5 7 9 9 9 9 9 9 9 10 10 9 9 9 9 9 9 9 9 8 7 7 7 7 7 6 5 4 4 5 6 6 7 6 8 8 8 9 8 8
6 8 5 4 5 1 3 2 6 7 6 7 8 8 8 8 9 9 9 9 9 9 9 9 9 9 10 10 9 8 8 7 7 7 6 5 4 3 4 4 4 5 6 7 7 8 8 8 8
7 6 6 6 4 2 3 3 6 6 4 4 5 6 7 8 7 8 8 8 8 9 8 8 9 9 9 9 9 8 8 6 5 6 5 4 3 3 3 3 3 3 4 6 6 6 7 7 8
7 6 5 5 9 6 4 6 7 5 3 4 6 7 7 7 7 7 7 7 7 7 7 7 7 8 9 9 9 8 8 7 7 7 6 5 4 3 3 3 2 1 2 3 4 5 6 6 7
2 5 5 5 6 5 1 3 4 4 4 6 6 7 7 6 7 7 6 6 6 6 5 6 6 7 7 8 8 8 7 7 6 6 7 7 7 5 5 4 3 2 1 1 1 3 4 6 6
5 3 4 5 2 3 4 3 5 4 3 4 5 6 6 6 5 5 5 5 6 6 6 6 7 7 7 8 7 7 7 7 7 7 7 7 7 7 7 6 6 5 4 2 1 1 2 3 4
2 5 5 5 5 2 3 3 5 3 1 2 4 5 5 5 4 5 5 5 5 6 7 7 7 7 7 7 8 8 8 8 8 8 8 7 7 7 7 7 6 7 6 4 3 1 1 2 3
Wind_Direction
243 233 232 255 261 79 65 58 52 36 39 47 45 56 68 58 52 83 153 134 120 121 128 131 129 127 126 125 125 124 124 123 123 122 121 119 114 107 101 97 92 88 84 81 78 80 83 84 78
257 229 241 252 322 77 68 61 60 44 40 53 59 57 66 61 73 101 130 115 121 125 136 133 134 133 132 132 133 133 130 129 127 126 125 123 118 114 108 103 96 92 89 89 90 91 91 89 84
259 241 253 239 73 74 73 61 63 59 46 58 74 61 48 50 80 106 115 124 123 127 128 129 139 138 138 138 138 137 138 137 135 134 135 134 132 126 120 114 107 97 94 91 92 99 102 102 103
257 249 260 61 78 73 72 75 65 62 54 57 66 69 58 45 84 112 130 129 121 122 123 135 142 145 147 147 147 147 149 149 149 149 149 149 148 143 136 129 121 112 103 95 99 110 121 123 121
245 280 28 68 77 66 61 66 72 68 55 65 82 83 72 68 88 116 134 126 129 128 129 141 148 153 157 159 163 165 165 167 168 167 166 165 165 165 158 152 138 127 125 116 116 133 146 151 153
275 50 68 82 85 70 61 58 61 61 50 44 84 91 75 70 86 103 111 122 132 134 138 144 157 163 169 174 177 178 180 183 184 183 182 182 180 178 177 170 157 147 136 138 149 165 171 170 175
285 271 146 127 99 76 63 65 61 60 46 28 48 89 84 61 65 87 92 93 110 129 140 152 164 173 180 185 187 189 191 194 196 195 192 193 194 195 196 191 182 174 170 172 179 189 192 193 197
292 323 21 70 96 73 63 69 64 58 51 35 35 62 71 48 54 73 68 60 69 98 130 158 169 177 182 189 194 196 197 199 202 203 203 203 205 208 209 204 196 192 193 195 196 201 206 208 209
268 42 56 56 92 76 61 78 76 69 65 57 55 55 49 43 54 58 53 45 39 34 37 74 143 168 189 191 194 195 199 202 205 207 211 210 214 213 209 215 191 192 198 204 206 210 214 214 217
12 68 65 66 86 91 62 47 45 74 54 44 43 42 40 43 46 46 42 36 30 21 15 19 14 21 198 208 176 190 196 198 207 211 206 211 226 221 213 200 184 191 199 206 214 218 221 224 220
50 67 83 76 91 104 92 59 36 76 51 36 30 29 33 40 41 39 34 28 23 14 9 4 2 360 5 15 157 184 184 195 214 222 210 213 228 215 198 174 182 193 202 209 213 217 226 225 222
82 54 68 69 65 73 74 80 62 57 62 51 46 36 36 37 34 30 27 18 17 15 6 358 360 354 350 354 351 201 183 194 216 228 221 215 226 218 202 190 186 191 201 209 200 212 222 227 219
106 92 86 87 86 87 87 84 81 68 69 62 53 45 38 33 28 24 21 14 12 9 1 354 351 353 346 343 337 332 298 226 228 227 235 219 213 221 220 206 194 198 199 199 206 217 224 222 213
125 129 124 117 107 100 95 86 75 65 64 60 51 46 36 30 21 16 12 2 357 354 350 349 341 342 338 333 328 318 314 285 264 243 249 243 218 227 233 231 201 210 217 192 196 224 230 222 211
140 150 145 142 138 141 118 77 68 68 64 53 40 42 29 22 17 16 8 354 350 342 334 334 322 330 322 313 307 308 303 296 267 251 254 259 237 225 244 240 217 214 227 223 204 230 220 210 202
196 191 164 138 165 169 200 84 76 50 35 43 28 25 18 21 14 16 8 355 350 340 332 327 328 329 316 303 291 283 278 275 268 251 248 255 256 237 238 247 234 229 222 230 211 247 222 210 205
224 244 181 160 90 85 76 94 88 48 7 21 20 12 14 15 13 12 4 355 347 336 331 332 332 321 311 302 285 269 264 259 262 254 243 246 251 249 231 231 245 242 234 231 228 217 219 221 212
320 299 280 147 86 69 84 107 104 56 23 16 12 8 14 13 7 9 2 354 347 344 341 337 326 314 308 297 293 285 267 257 255 252 240 240 243 246 240 224 231 236 230 235 241 218 225 234 219
319 310 306 95 95 49 96 125 118 70 37 19 10 7 9 6 360 8 358 355 351 349 343 336 328 324 319 309 300 298 294 287 265 246 239 233 233 229 223 224 220 213 213 218 226 228 225 230 239
300 303 313 90 86 358 204 165 125 96 62 33 13 6 8 1 355 1 356 356 352 348 342 333 332 328 324 313 305 289 287 282 268 254 242 234 231 222 220 213 211 210 208 212 212 220 226 227 230
317 342 344 337 336 267 251 200 148 129 86 48 26 16 9 360 355 353 352 354 349 348 345 338 334 330 325 321 311 304 297 289 283 266 252 235 229 224 216 213 205 208 204 203 202 205 208 216 238
332 24 332 302 282 248 219 255 140 135 81 39 24 18 9 2 356 352 354 355 353 352 347 340 339 337 332 328 319 310 296 292 293 295 282 272 248 229 220 216 210 208 204 203 204 201 201 199 224
331 331 293 275 266 273 245 263 129 113 34 23 16 12 10 3 357 358 358 354 354 352 349 344 345 344 342 336 325 315 306 301 299 300 291 279 267 250 231 219 214 212 204 207 209 204 199 197 205
288 275 254 244 254 257 250 282 104 59 22 8 7 11 8 1 359 1 358 356 354 353 353 348 349 347 344 342 339 334 324 319 316 311 305 301 280 261 246 230 220 216 208 210 207 210 204 198 201
276 304 289 233 214 189 61 52 82 65 35 12 5 8 8 7 3 1 1 359 356 358 358 356 358 355 352 350 350 347 338 328 320 312 304 301 294 284 269 253 230 224 215 209 202 203 203 198 199
317 311 326 320 333 127 154 83 99 85 65 27 12 13 8 8 7 1 1 359 356 359 0 0 359 358 358 355 352 350 352 344 330 321 320 324 311 294 297 285 258 231 219 212 203 206 201 198 199
329 351 349 302 293 289 122 116 131 131 77 31 13 14 11 6 5 3 0 2 359 358 356 0 1 2 359 357 352 351 353 352 348 347 346 342 333 332 336 329 309 273 230 208 190 200 202 195 195
330 321 305 298 337 326 69 99 93 80 30 17 11 10 8 2 1 5 5 8 360 353 348 5 9 7 3 360 356 354 355 354 352 359 2 360 360 5 17 11 3 12 346 208 189 202 201 197 195
338 315 332 300 292 328 337 59 74 64 37 5 6 11 3 3 1 6 9 11 4 2 4 18 16 15 6 2 359 358 6 5 9 11 8 6 9 17 22 25 23 24 21 23 99 170 173 189 191
354 355 338 330 342 316 290 99 99 110 88 19 13 8 2 4 7 20 18 13 8 8 9 19 18 16 12 6 6 13 20 18 20 21 17 12 17 19 22 27 28 30 25 25 29 71 150 170 184
Height
1508 1509 1510 1512 1513 1513 1517 1512 1507 1506 1504 1504 1504 1505 1510 1516 1522 1533 1533 1534 1534 1534 1537 1539 1541 1543 1545 1546 1548 1549 1551 1552 1553 1554 1555 1556 1557 1558 1559 1559 1560 1560 1561 1561 1562 1562 1562 1563 1563
1509 1511 1513 1514 1515 1524 1523 1512 1510 1508 1507 1506 1507 1509 1513 1520 1525 1530 1533 1535 1535 1536 1539 1541 1542 1544 1546 1547 1549 1550 1551 1553 1554 1555 1556 1557 1558 1558 1559 1560 1560 1561 1561 1561 1562 1562 1563 1563 1564
1510 1513 1514 1512 1514 1523 1522 1512 1510 1510 1509 1509 1511 1515 1521 1526 1529 1532 1535 1537 1538 1539 1540 1542 1544 1545 1547 1548 1549 1551 1552 1553 1554 1555 1556 1557 1558 1558 1559 1560 1560 1561 1561 1561 1562 1562 1563 1564 1564
1513 1514 1513 1513 1517 1514 1513 1511 1511 1512 1512 1512 1514 1520 1528 1530 1532 1534 1537 1539 1540 1541 1542 1544 1545 1546 1547 1549 1550 1551 1552 1553 1554 1555 1556 1557 1558 1558 1559 1559 1560 1560 1561 1561 1562 1562 1563 1564 1564
1515 1515 1516 1519 1518 1513 1511 1512 1513 1514 1515 1517 1520 1528 1533 1535 1536 1537 1539 1541 1542 1543 1543 1545 1546 1547 1548 1549 1550 1551 1552 1553 1554 1555 1556 1556 1557 1558 1559 1559 1560 1560 1560 1561 1561 1562 1563 1563 1564
1516 1515 1527 1530 1521 1516 1515 1515 1516 1518 1520 1521 1523 1529 1536 1539 1539 1541 1542 1543 1544 1544 1544 1545 1547 1548 1548 1549 1550 1551 1552 1553 1554 1554 1555 1556 1557 1558 1558 1559 1559 1560 1560 1560 1561 1562 1562 1563 1564
1516 1515 1523 1523 1522 1520 1518 1519 1521 1523 1525 1527 1528 1531 1538 1540 1542 1543 1544 1545 1545 1546 1545 1545 1547 1548 1549 1549 1550 1551 1552 1552 1553 1554 1555 1555 1556 1557 1558 1558 1559 1559 1559 1560 1560 1561 1562 1563 1564
1515 1515 1521 1523 1523 1524 1521 1523 1526 1528 1532 1533 1531 1536 1542 1543 1543 1544 1544 1545 1546 1546 1547 1546 1546 1547 1547 1548 1549 1550 1551 1551 1552 1553 1554 1555 1556 1556 1557 1557 1558 1558 1559 1559 1560 1560 1561 1562 1563
1515 1520 1530 1527 1524 1526 1524 1526 1531 1535 1537 1538 1539 1542 1544 1544 1544 1544 1544 1545 1546 1546 1546 1547 1547 1547 1547 1547 1547 1549 1550 1550 1551 1552 1553 1553 1554 1555 1556 1556 1557 1558 1558 1558 1559 1560 1561 1562 1563
1514 1524 1527 1522 1521 1527 1530 1532 1533 1538 1540 1543 1544 1545 1545 1545 1544 1544 1544 1545 1545 1545 1545 1545 1546 1546 1546 1546 1546 1547 1548 1549 1549 1550 1551 1552 1553 1554 1555 1555 1556 1557 1557 1557 1558 1559 1560 1561 1563
1517 1522 1522 1523 1525 1528 1532 1537 1539 1540 1546 1549 1549 1548 1547 1546 1546 1545 1545 1545 1544 1544 1544 1544 1544 1544 1545 1545 1546 1546 1546 1547 1548 1549 1549 1550 1551 1552 1553 1554 1555 1555 1556 1556 1557 1558 1559 1561 1562
1521 1524 1523 1527 1528 1530 1534 1539 1544 1547 1552 1552 1550 1550 1549 1548 1547 1547 1546 1545 1544 1543 1543 1542 1542 1542 1543 1543 1544 1544 1545 1545 1546 1546 1547 1548 1549 1550 1551 1552 1553 1553 1554 1555 1556 1557 1559 1560 1562
1524 1528 1530 1532 1534 1537 1540 1544 1548 1552 1553 1552 1552 1551 1550 1549 1549 1548 1547 1546 1544 1543 1542 1541 1540 1540 1540 1540 1540 1541 1542 1542 1543 1544 1545 1545 1546 1547 1549 1550 1551 1552 1553 1554 1555 1556 1558 1560 1562
1524 1528 1531 1533 1535 1538 1541 1546 1550 1554 1554 1553 1553 1552 1552 1551 1550 1548 1547 1546 1544 1543 1541 1539 1538 1537 1537 1537 1536 1537 1538 1539 1540 1540 1541 1542 1542 1544 1546 1548 1549 1550 1552 1553 1554 1555 1557 1559 1561
1524 1527 1530 1532 1534 1538 1539 1548 1553 1555 1554 1554 1553 1553 1552 1551 1550 1549 1547 1546 1544 1542 1540 1538 1537 1535 1534 1533 1533 1533 1533 1534 1535 1536 1537 1538 1539 1540 1542 1544 1545 1547 1549 1551 1552 1554 1556 1557 1559
1521 1526 1535 1532 1532 1534 1539 1553 1555 1555 1554 1554 1553 1553 1552 1551 1550 1549 1547 1546 1543 1541 1539 1537 1535 1533 1532 1530 1529 1529 1529 1530 1530 1532 1533 1534 1535 1536 1538 1539 1542 1544 1546 1548 1550 1551 1553 1555 1557
1522 1531 1538 1536 1532 1533 1538 1552 1555 1555 1554 1554 1553 1553 1552 1551 1551 1549 1547 1545 1542 1540 1537 1535 1533 1531 1529 1528 1526 1525 1525 1525 1526 1527 1528 1529 1531 1532 1533 1535 1537 1540 1541 1544 1546 1548 1550 1553 1555
1530 1528 1528 1533 1534 1535 1542 1550 1553 1555 1555 1555 1554 1553 1553 1552 1551 1549 1547 1544 1542 1539 1536 1533 1531 1528 1526 1525 1523 1522 1521 1521 1521 1521 1522 1524 1525 1527 1529 1530 1532 1535 1537 1539 1542 1545 1547 1550 1552
1524 1526 1528 1531 1533 1536 1542 1548 1551 1554 1556 1556 1555 1555 1554 1553 1552 1549 1546 1543 1540 1537 1534 1531 1528 1526 1524 1522 1520 1519 1518 1517 1517 1517 1517 1518 1520 1521 1523 1525 1527 1530 1532 1535 1537 1541 1543 1546 1549
1525 1527 1527 1530 1532 1536 1541 1545 1549 1553 1556 1557 1557 1556 1554 1553 1551 1548 1545 1542 1539 1535 1532 1528 1526 1523 1521 1519 1517 1515 1514 1513 1513 1513 1513 1513 1515 1516 1517 1519 1521 1524 1526 1530 1532 1536 1539 1542 1545
1527 1530 1533 1535 1534 1536 1540 1546 1549 1552 1554 1556 1556 1556 1555 1554 1551 1548 1545 1541 1537 1534 1530 1526 1523 1520 1518 1516 1514 1512 1511 1510 1509 1509 1509 1509 1510 1511 1512 1514 1516 1518 1521 1524 1527 1530 1534 1537 1541
1535 1533 1535 1536 1540 1539 1539 1551 1550 1550 1553 1555 1556 1556 1555 1553 1551 1547 1544 1540 1536 1532 1528 1524 1521 1517 1515 1512 1510 1509 1507 1506 1506 1505 1504 1504 1505 1506 1507 1509 1510 1513 1515 1518 1521 1525 1528 1531 1535
1537 1535 1535 1535 1537 1539 1535 1543 1555 1549 1554 1555 1556 1556 1555 1553 1550 1547 1544 1540 1536 1531 1527 1523 1519 1515 1512 1510 1508 1506 1504 1503 1502 1501 1500 1500 1500 1501 1502 1503 1505 1508 1510 1512 1515 1519 1522 1525 1529
1536 1534 1532 1532 1535 1545 1535 1541 1556 1554 1556 1556 1556 1555 1554 1552 1550 1547 1543 1539 1535 1531 1526 1522 1518 1514 1511 1508 1505 1503 1501 1500 1498 1497 1496 1496 1496 1497 1498 1499 1500 1502 1504 1507 1510 1513 1516 1520 1523
1533 1537 1542 1543 1548 1545 1535 1542 1556 1553 1554 1556 1556 1555 1554 1552 1549 1546 1543 1539 1534 1530 1526 1522 1518 1514 1510 1507 1504 1502 1499 1498 1496 1494 1493 1492 1492 1493 1493 1494 1495 1497 1499 1502 1504 1507 1510 1514 1517
1535 1537 1549 1556 1547 1543 1538 1545 1554 1551 1554 1555 1555 1555 1554 1552 1549 1546 1542 1539 1535 1531 1526 1522 1518 1514 1511 1507 1504 1501 1498 1496 1494 1493 1492 1490 1490 1490 1490 1491 1492 1493 1495 1497 1499 1502 1505 1508 1511
1539 1536 1536 1544 1537 1538 1538 1545 1550 1550 1552 1553 1554 1554 1553 1551 1549 1546 1542 1539 1535 1531 1527 1524 1519 1516 1512 1508 1504 1501 1498 1496 1494 1492 1491 1489 1488 1488 1488 1488 1489 1490 1491 1493 1495 1497 1499 1503 1506
1540 1541 1539 1543 1551 1553 1544 1544 1551 1551 1552 1553 1553 1553 1552 1550 1548 1545 1542 1539 1536 1532 1529 1525 1521 1517 1513 1509 1505 1502 1499 1496 1494 1492 1491 1489 1488 1487 1487 1487 1487 1487 1489 1490 1491 1494 1496 1498 1501
1541 1539 1540 1540 1542 1556 1561 1559 1547 1550 1552 1552 1552 1552 1551 1550 1547 1545 1542 1540 1536 1533 1530 1526 1523 1519 1515 1511 1508 1504 1501 1498 1496 1494 1492 1491 1489 1488 1486 1486 1486 1486 1487 1488 1489 1491 1493 1495 1497
1543 1545 1546 1552 1548 1544 1552 1559 1547 1549 1550 1551 1551 1551 1550 1549 1547 1545 1543 1540 1537 1534 1531 1528 1524 1521 1517 1513 1510 1507 1504 1501 1498 1496 1494 1492 1491 1489 1488 1487 1487 1486 1487 1487 1488 1489 1490 1492 1494